Time,TemperatureF,DewpointF,PressureIn,WindDirection,WindDirectionDegrees,WindSpeedMPH,WindSpeedGustMPH,Humidity,HourlyPrecipIn,Conditions,Clouds,dailyrainin,SoftwareType,DateUTC
2013-02-07 00:00:00,79.0,-99.9,29.84,East,100,11.0,-999.0,-999,-99.99,,,-99.99,,2013-02-07 08:00:00,
2013-02-07 00:22:00,79.0,-99.9,29.84,East,100,11.0,-999.0,-999,-99.99,,,-99.99,,2013-02-07 08:22:00,
2013-02-07 00:32:00,79.0,-99.9,29.84,East,100,11.0,-999.0,-999,-99.99,,,-99.99,,2013-02-07 08:32:00,
2013-02-07 00:42:00,79.0,-99.9,29.84,East,100,11.0,-999.0,-999,-99.99,,,-99.99,,2013-02-07 08:42:00,
2013-02-07 00:52:00,79.0,-99.9,29.84,East,100,11.0,-999.0,-999,-99.99,,,-99.99,,2013-02-07 08:52:00,
2013-02-07 01:00:00,79.0,-99.9,29.85,East,100,13.0,-999.0,-999,-99.99,,,-99.99,,2013-02-07 09:00:00,
2013-02-07 01:22:00,79.0,-99.9,29.85,East,100,13.0,-999.0,-999,-99.99,,,-99.99,,2013-02-07 09:22:00,
2013-02-07 01:32:00,79.0,-99.9,29.85,East,100,13.0,-999.0,-999,-99.99,,,-99.99,,2013-02-07 09:32:00,
2013-02-07 01:42:00,79.0,-99.9,29.85,East,100,13.0,-999.0,-999,-99.99,,,-99.99,,2013-02-07 09:42:00,
2013-02-07 01:52:00,79.0,-99.9,29.85,East,100,13.0,-999.0,-999,-99.99,,,-99.99,,2013-02-07 09:52:00,
2013-02-07 02:00:00,80.0,-99.9,29.88,ENE,70,15.0,-999.0,-999,-99.99,,,-99.99,,2013-02-07 10:00:00,
2013-02-07 02:22:00,80.0,-99.9,29.88,ENE,70,15.0,-999.0,-999,-99.99,,,-99.99,,2013-02-07 10:22:00,
2013-02-07 02:32:00,80.0,-99.9,29.88,ENE,70,15.0,-999.0,-999,-99.99,,,-99.99,,2013-02-07 10:32:00,
2013-02-07 02:42:00,80.0,-99.9,29.88,ENE,70,15.0,-999.0,-999,-99.99,,,-99.99,,2013-02-07 10:42:00,
2013-02-07 02:52:00,80.0,-99.9,29.88,ENE,70,15.0,-999.0,-999,-99.99,,,-99.99,,2013-02-07 10:52:00,
2013-02-07 03:00:00,80.0,-99.9,29.90,East,90,13.0,-999.0,-999,-99.99,,,-99.99,,2013-02-07 11:00:00,
2013-02-07 03:23:00,80.0,-99.9,29.90,East,90,13.0,-999.0,-999,-99.99,,,-99.99,,2013-02-07 11:23:00,
2013-02-07 03:32:00,80.0,-99.9,29.90,East,90,13.0,-999.0,-999,-99.99,,,-99.99,,2013-02-07 11:32:00,
2013-02-07 03:44:00,80.0,-99.9,29.90,East,90,13.0,-999.0,-999,-99.99,,,-99.99,,2013-02-07 11:44:00,
2013-02-07 03:53:00,80.0,-99.9,29.90,East,90,13.0,-999.0,-999,-99.99,,,-99.99,,2013-02-07 11:53:00,
2013-02-07 04:00:00,84.0,74.0,29.91,ESE,110,14.0,-999.0,72,-99.99,,,-99.99,,2013-02-07 12:00:00,
2013-02-07 04:22:00,81.0,-99.9,29.91,East,80,16.0,-999.0,-999,-99.99,,,-99.99,,2013-02-07 12:22:00,
2013-02-07 04:33:00,81.0,-99.9,29.91,East,80,16.0,-999.0,-999,-99.99,,,-99.99,,2013-02-07 12:33:00,
2013-02-07 04:42:00,81.0,-99.9,29.91,East,80,16.0,-999.0,-999,-99.99,,,-99.99,,2013-02-07 12:42:00,
2013-02-07 04:52:00,84.0,74.0,29.91,ESE,110,14.0,-999.0,72,-99.99,,,-99.99,,2013-02-07 12:52:00,
2013-02-07 05:00:00,81.0,-99.9,29.91,East,90,14.0,-999.0,-999,-99.99,,,-99.99,,2013-02-07 13:00:00,
2013-02-07 05:22:00,81.0,-99.9,29.91,East,90,14.0,-999.0,-999,-99.99,,,-99.99,,2013-02-07 13:22:00,
2013-02-07 05:33:00,81.0,-99.9,29.91,East,90,14.0,-999.0,-999,-99.99,,,-99.99,,2013-02-07 13:33:00,
2013-02-07 05:42:00,81.0,-99.9,29.91,East,90,14.0,-999.0,-999,-99.99,,,-99.99,,2013-02-07 13:42:00,
2013-02-07 05:52:00,81.0,-99.9,29.91,East,90,14.0,-999.0,-999,-99.99,,,-99.99,,2013-02-07 13:52:00,
2013-02-07 06:00:00,80.0,-99.9,29.90,ENE,70,16.0,-999.0,-999,-99.99,,,-99.99,,2013-02-07 14:00:00,
2013-02-07 06:22:00,80.0,-99.9,29.90,ENE,70,16.0,-999.0,-999,-99.99,,,-99.99,,2013-02-07 14:22:00,
2013-02-07 06:32:00,80.0,-99.9,29.90,ENE,70,16.0,-999.0,-999,-99.99,,,-99.99,,2013-02-07 14:32:00,
2013-02-07 06:42:00,80.0,-99.9,29.90,ENE,70,16.0,-999.0,-999,-99.99,,,-99.99,,2013-02-07 14:42:00,
2013-02-07 06:52:00,80.0,-99.9,29.90,ENE,70,16.0,-999.0,-999,-99.99,,,-99.99,,2013-02-07 14:52:00,
2013-02-07 07:00:00,80.0,-99.9,29.88,ENE,60,18.0,-999.0,-999,-99.99,,,-99.99,,2013-02-07 15:00:00,
2013-02-07 07:22:00,80.0,-99.9,29.88,ENE,60,18.0,-999.0,-999,-99.99,,,-99.99,,2013-02-07 15:22:00,
2013-02-07 07:32:00,80.0,-99.9,29.88,ENE,60,18.0,-999.0,-999,-99.99,,,-99.99,,2013-02-07 15:32:00,
2013-02-07 07:42:00,80.0,-99.9,29.88,ENE,60,18.0,-999.0,-999,-99.99,,,-99.99,,2013-02-07 15:42:00,
2013-02-07 07:52:00,80.0,-99.9,29.88,ENE,60,18.0,-999.0,-999,-99.99,,,-99.99,,2013-02-07 15:52:00,
2013-02-07 08:00:00,79.0,-99.9,29.84,NE,50,15.0,-999.0,-999,-99.99,,,-99.99,,2013-02-07 16:00:00,
2013-02-07 08:22:00,79.0,-99.9,29.84,NE,50,15.0,-999.0,-999,-99.99,,,-99.99,,2013-02-07 16:22:00,
2013-02-07 08:32:00,79.0,-99.9,29.84,NE,50,15.0,-999.0,-999,-99.99,,,-99.99,,2013-02-07 16:32:00,
2013-02-07 08:42:00,79.0,-99.9,29.84,NE,50,15.0,-999.0,-999,-99.99,,,-99.99,,2013-02-07 16:42:00,
2013-02-07 08:52:00,79.0,-99.9,29.84,NE,50,15.0,-999.0,-999,-99.99,,,-99.99,,2013-02-07 16:52:00,
2013-02-07 09:00:00,79.0,-99.9,29.82,ENE,60,16.0,-999.0,-999,-99.99,,,-99.99,,2013-02-07 17:00:00,
2013-02-07 09:22:00,79.0,-99.9,29.82,ENE,60,16.0,-999.0,-999,-99.99,,,-99.99,,2013-02-07 17:22:00,
2013-02-07 09:32:00,79.0,-99.9,29.82,ENE,60,16.0,-999.0,-999,-99.99,,,-99.99,,2013-02-07 17:32:00,
2013-02-07 09:43:00,79.0,-99.9,29.82,ENE,60,16.0,-999.0,-999,-99.99,,,-99.99,,2013-02-07 17:43:00,
2013-02-07 09:52:00,79.0,-99.9,29.82,ENE,60,16.0,-999.0,-999,-99.99,,,-99.99,,2013-02-07 17:52:00,
2013-02-07 10:00:00,79.0,-99.9,29.80,NE,40,18.0,-999.0,-999,-99.99,,,-99.99,,2013-02-07 18:00:00,
2013-02-07 10:23:00,79.0,-99.9,29.80,NE,40,18.0,-999.0,-999,-99.99,,,-99.99,,2013-02-07 18:23:00,
2013-02-07 10:32:00,79.0,-99.9,29.80,NE,40,18.0,-999.0,-999,-99.99,,,-99.99,,2013-02-07 18:32:00,
2013-02-07 10:42:00,79.0,-99.9,29.80,NE,40,18.0,-999.0,-999,-99.99,,,-99.99,,2013-02-07 18:42:00,
2013-02-07 10:52:00,79.0,-99.9,29.80,NE,40,18.0,-999.0,-999,-99.99,,,-99.99,,2013-02-07 18:52:00,
2013-02-07 11:00:00,80.0,-99.9,29.80,NE,40,18.0,-999.0,-999,-99.99,,,-99.99,,2013-02-07 19:00:00,
2013-02-07 11:22:00,80.0,-99.9,29.80,NE,40,18.0,-999.0,-999,-99.99,,,-99.99,,2013-02-07 19:22:00,
2013-02-07 11:32:00,80.0,-99.9,29.80,NE,40,18.0,-999.0,-999,-99.99,,,-99.99,,2013-02-07 19:32:00,
2013-02-07 11:42:00,80.0,-99.9,29.80,NE,40,18.0,-999.0,-999,-99.99,,,-99.99,,2013-02-07 19:42:00,
2013-02-07 11:52:00,80.0,-99.9,29.80,NE,40,18.0,-999.0,-999,-99.99,,,-99.99,,2013-02-07 19:52:00,
2013-02-07 12:00:00,80.0,-99.9,29.81,NE,40,24.0,-999.0,-999,-99.99,,,-99.99,,2013-02-07 20:00:00,
2013-02-07 12:22:00,80.0,-99.9,29.81,NE,40,24.0,-999.0,-999,-99.99,,,-99.99,,2013-02-07 20:22:00,
2013-02-07 12:32:00,80.0,-99.9,29.81,NE,40,24.0,-999.0,-999,-99.99,,,-99.99,,2013-02-07 20:32:00,
2013-02-07 12:42:00,80.0,-99.9,29.81,NE,40,24.0,-999.0,-999,-99.99,,,-99.99,,2013-02-07 20:42:00,
2013-02-07 12:52:00,80.0,-99.9,29.81,NE,40,24.0,-999.0,-999,-99.99,,,-99.99,,2013-02-07 20:52:00,
2013-02-07 13:00:00,79.0,-99.9,29.83,NE,40,23.0,-999.0,-999,-99.99,,,-99.99,,2013-02-07 21:00:00,
2013-02-07 13:22:00,79.0,-99.9,29.83,NE,40,23.0,-999.0,-999,-99.99,,,-99.99,,2013-02-07 21:22:00,
2013-02-07 13:32:00,79.0,-99.9,29.83,NE,40,23.0,-999.0,-999,-99.99,,,-99.99,,2013-02-07 21:32:00,
2013-02-07 13:42:00,79.0,-99.9,29.83,NE,40,23.0,-999.0,-999,-99.99,,,-99.99,,2013-02-07 21:42:00,
2013-02-07 13:52:00,79.0,-99.9,29.83,NE,40,23.0,-999.0,-999,-99.99,,,-99.99,,2013-02-07 21:52:00,
2013-02-07 14:00:00,79.0,-99.9,29.85,NE,50,24.0,-999.0,-999,-99.99,,,-99.99,,2013-02-07 22:00:00,
2013-02-07 14:22:00,79.0,-99.9,29.85,NE,50,24.0,-999.0,-999,-99.99,,,-99.99,,2013-02-07 22:22:00,
2013-02-07 14:32:00,79.0,-99.9,29.85,NE,50,24.0,-999.0,-999,-99.99,,,-99.99,,2013-02-07 22:32:00,
2013-02-07 14:42:00,79.0,-99.9,29.85,NE,50,24.0,-999.0,-999,-99.99,,,-99.99,,2013-02-07 22:42:00,
2013-02-07 14:52:00,79.0,-99.9,29.85,NE,50,24.0,-999.0,-999,-99.99,,,-99.99,,2013-02-07 22:52:00,
2013-02-07 15:00:00,79.0,-99.9,29.88,NE,50,18.0,-999.0,-999,-99.99,,,-99.99,,2013-02-07 23:00:00,
2013-02-07 15:22:00,79.0,-99.9,29.88,NE,50,18.0,-999.0,-999,-99.99,,,-99.99,,2013-02-07 23:22:00,
2013-02-07 15:32:00,79.0,-99.9,29.88,NE,50,18.0,-999.0,-999,-99.99,,,-99.99,,2013-02-07 23:32:00,
2013-02-07 15:42:00,79.0,-99.9,29.88,NE,50,18.0,-999.0,-999,-99.99,,,-99.99,,2013-02-07 23:42:00,
2013-02-07 15:52:00,79.0,-99.9,29.88,NE,50,18.0,-999.0,-999,-99.99,,,-99.99,,2013-02-07 23:52:00,
2013-02-07 16:00:00,79.0,-99.9,29.89,NE,50,23.0,-999.0,-999,-99.99,,,-99.99,,2013-02-08 00:00:00,
2013-02-07 16:22:00,79.0,-99.9,29.89,NE,50,23.0,-999.0,-999,-99.99,,,-99.99,,2013-02-08 00:22:00,
2013-02-07 16:32:00,79.0,-99.9,29.89,NE,50,23.0,-999.0,-999,-99.99,,,-99.99,,2013-02-08 00:32:00,
2013-02-07 16:42:00,79.0,-99.9,29.89,NE,50,23.0,-999.0,-999,-99.99,,,-99.99,,2013-02-08 00:42:00,
2013-02-07 16:53:00,79.0,-99.9,29.89,NE,50,23.0,-999.0,-999,-99.99,,,-99.99,,2013-02-08 00:53:00,
2013-02-07 17:00:00,79.0,-99.9,29.90,NE,40,23.0,-999.0,-999,-99.99,,,-99.99,,2013-02-08 01:00:00,
2013-02-07 17:22:00,79.0,-99.9,29.90,NE,40,23.0,-999.0,-999,-99.99,,,-99.99,,2013-02-08 01:22:00,
2013-02-07 17:32:00,79.0,-99.9,29.90,NE,40,23.0,-999.0,-999,-99.99,,,-99.99,,2013-02-08 01:32:00,
2013-02-07 17:42:00,79.0,-99.9,29.90,NE,40,23.0,-999.0,-999,-99.99,,,-99.99,,2013-02-08 01:42:00,
2013-02-07 17:52:00,79.0,-99.9,29.90,NE,40,23.0,-999.0,-999,-99.99,,,-99.99,,2013-02-08 01:52:00,
2013-02-07 18:00:00,79.0,-99.9,29.91,NE,50,18.0,-999.0,-999,-99.99,,,-99.99,,2013-02-08 02:00:00,
2013-02-07 18:22:00,79.0,-99.9,29.91,NE,50,18.0,-999.0,-999,-99.99,,,-99.99,,2013-02-08 02:22:00,
2013-02-07 18:32:00,79.0,-99.9,29.91,NE,50,18.0,-999.0,-999,-99.99,,,-99.99,,2013-02-08 02:32:00,
2013-02-07 18:42:00,79.0,-99.9,29.91,NE,50,18.0,-999.0,-999,-99.99,,,-99.99,,2013-02-08 02:42:00,
2013-02-07 18:53:00,79.0,-99.9,29.91,NE,50,18.0,-999.0,-999,-99.99,,,-99.99,,2013-02-08 02:53:00,
2013-02-07 19:00:00,79.0,-99.9,29.90,NE,50,18.0,-999.0,-999,-99.99,,,-99.99,,2013-02-08 03:00:00,
2013-02-07 19:23:00,79.0,-99.9,29.90,NE,50,18.0,-999.0,-999,-99.99,,,-99.99,,2013-02-08 03:23:00,
2013-02-07 19:32:00,79.0,-99.9,29.90,NE,50,18.0,-999.0,-999,-99.99,,,-99.99,,2013-02-08 03:32:00,
2013-02-07 19:42:00,79.0,-99.9,29.90,NE,50,18.0,-999.0,-999,-99.99,,,-99.99,,2013-02-08 03:42:00,
2013-02-07 19:52:00,79.0,-99.9,29.90,NE,50,18.0,-999.0,-999,-99.99,,,-99.99,,2013-02-08 03:52:00,
2013-02-07 20:00:00,78.0,-99.9,29.89,East,90,14.0,-999.0,-999,-99.99,,,-99.99,,2013-02-08 04:00:00,
2013-02-07 20:22:00,78.0,-99.9,29.89,East,90,14.0,-999.0,-999,-99.99,,,-99.99,,2013-02-08 04:22:00,
2013-02-07 20:32:00,78.0,-99.9,29.89,East,90,14.0,-999.0,-999,-99.99,,,-99.99,,2013-02-08 04:32:00,
2013-02-07 20:52:00,78.0,-99.9,29.89,East,90,14.0,-999.0,-999,-99.99,,,-99.99,,2013-02-08 04:52:00,
2013-02-07 21:00:00,78.0,-99.9,29.87,ENE,60,21.0,-999.0,-999,-99.99,,,-99.99,,2013-02-08 05:00:00,
2013-02-07 21:22:00,78.0,-99.9,29.87,ENE,60,21.0,-999.0,-999,-99.99,,,-99.99,,2013-02-08 05:22:00,
2013-02-07 21:32:00,78.0,-99.9,29.87,ENE,60,21.0,-999.0,-999,-99.99,,,-99.99,,2013-02-08 05:32:00,
2013-02-07 21:42:00,78.0,-99.9,29.87,ENE,60,21.0,-999.0,-999,-99.99,,,-99.99,,2013-02-08 05:42:00,
2013-02-07 21:52:00,78.0,-99.9,29.87,ENE,60,21.0,-999.0,-999,-99.99,,,-99.99,,2013-02-08 05:52:00,
2013-02-07 22:00:00,78.0,74.0,29.86,ENE,60,15.0,-999.0,87,-99.99,,,-99.99,,2013-02-08 06:00:00,
2013-02-07 22:22:00,78.0,-99.9,29.86,ENE,60,16.0,-999.0,-999,-99.99,,,-99.99,,2013-02-08 06:22:00,
2013-02-07 22:31:00,78.0,74.0,29.86,ENE,60,15.0,-999.0,87,-99.99,,,-99.99,,2013-02-08 06:31:00,
2013-02-07 22:41:00,78.0,74.0,29.86,ENE,60,15.0,-999.0,87,-99.99,,,-99.99,,2013-02-08 06:41:00,
2013-02-07 22:51:00,78.0,74.0,29.86,ENE,60,15.0,-999.0,87,-99.99,,,-99.99,,2013-02-08 06:51:00,
2013-02-07 23:00:00,78.0,-99.9,29.85,NE,40,24.0,-999.0,-999,-99.99,,,-99.99,,2013-02-08 07:00:00,
2013-02-07 23:22:00,78.0,-99.9,29.85,NE,40,24.0,-999.0,-999,-99.99,,,-99.99,,2013-02-08 07:22:00,
2013-02-07 23:32:00,78.0,-99.9,29.85,NE,40,24.0,-999.0,-999,-99.99,,,-99.99,,2013-02-08 07:32:00,
2013-02-07 23:42:00,78.0,-99.9,29.85,NE,40,24.0,-999.0,-999,-99.99,,,-99.99,,2013-02-08 07:42:00,
2013-02-07 23:52:00,78.0,-99.9,29.85,NE,40,24.0,-999.0,-999,-99.99,,,-99.99,,2013-02-08 07:52:00,